Date,TemperatureHighF,TemperatureAvgF,TemperatureLowF,DewpointHighF,DewpointAvgF,DewpointLowF,HumidityHigh,HumidityAvg,HumidityLow,PressureMaxIn,PressureMinIn,WindSpeedMaxMPH,WindSpeedAvgMPH,GustSpeedMaxMPH,PrecipitationSumIn
2013-3-1,39.0,35.9,34.0,31.0,28.9,27.0,83,76,66,30.18,30.10,2,0,5,0.00
2013-3-2,37.0,32.7,31.0,29.0,26.2,20.0,90,77,60,30.27,30.15,3,0,8,0.02
2013-3-3,51.0,36.6,21.0,27.0,22.7,19.0,94,61,30,30.26,30.09,2,0,7,0.01
2013-3-4,69.0,53.8,35.0,48.0,32.7,25.0,73,47,26,30.10,29.79,7,1,17,0.00
2013-3-5,63.0,50.6,38.0,57.0,39.5,23.0,92,67,40,30.20,29.79,6,2,18,0.40
2013-3-6,51.0,39.3,33.0,29.0,26.0,23.0,85,60,42,30.37,30.20,3,1,7,0.03
2013-3-7,57.0,42.9,31.0,32.0,30.4,27.0,89,64,37,30.42,30.30,3,1,7,0.00
2013-3-8,67.0,50.5,33.0,34.0,28.2,19.0,86,48,16,30.41,30.21,4,1,10,0.00
2013-3-9,72.0,60.1,48.0,39.0,33.7,29.0,58,38,24,30.20,29.96,3,1,10,0.00
2013-3-10,65.0,58.5,52.0,57.0,49.7,39.0,96,75,40,29.99,29.78,6,2,16,1.02
2013-3-11,53.0,43.5,40.0,52.0,37.3,32.0,95,78,69,29.96,29.85,4,2,15,1.02
2013-3-21,48.0,42.5,35.0,33.0,22.1,14.0,88,48,25,30.04,29.96,5,1,8,0.04
2013-3-22,47.0,41.6,34.0,44.0,39.2,31.0,94,91,86,30.03,29.90,4,1,8,0.42
2013-3-23,54.0,49.3,45.0,50.0,46.3,43.0,96,90,83,29.95,29.70,7,2,14,0.43
2013-3-24,51.0,46.0,37.0,50.0,40.8,27.0,97,83,64,29.97,29.55,9,3,20,0.48
2013-3-25,40.0,36.8,33.0,27.0,24.6,22.0,70,61,52,30.26,29.97,5,2,16,0.02
2013-3-26,51.0,38.8,31.0,30.0,26.2,23.0,87,62,37,30.38,30.26,3,0,12,0.00
2013-3-27,63.0,42.7,25.0,35.0,28.4,24.0,95,63,27,30.44,30.31,3,0,8,0.00
2013-3-28,71.0,52.3,34.0,39.0,34.3,31.0,94,57,25,30.38,30.24,3,0,7,0.00
2013-3-29,65.0,54.2,47.0,53.0,44.7,35.0,93,72,36,30.29,30.18,4,0,9,0.09
2013-3-30,59.0,53.5,48.0,57.0,51.0,-99.9,98,95,92,30.21,29.95,3,0,6,0.30
2013-3-31,64.0,57.2,48.0,59.0,54.9,46.0,98,93,78,29.99,29.89,3,0,7,0.06